Jacksonville Craig, FL

10:11 AM EST on January 23, 2018 (GMT -0500)
Craig Municipal

Weather History for KCRG - January, 2013

Change the Weather History Date:

Friday, January 4, 2013

  Actual Average Record
Temperature  
Mean Temperature 52 °F -  
Max Temperature 57 °F 63 °F 81 °F (2000)
Min Temperature 48 °F 43 °F 28 °F (2001)
Degree Days  
Heating Degree Days 12    
Growing Degree Days 2 (Base 50)    
Moisture  
Dew Point 46 °F    
Average Humidity 81    
Maximum Humidity 89    
Minimum Humidity 72    
Precipitation  
Precipitation 0.00 in - - ()
Sea Level Pressure  
Sea Level Pressure 30.28 in    
Wind  
Wind Speed 7 mph (North)    
Max Wind Speed 10 mph    
Max Gust Speed -    
Visibility 10 miles    
Events      
Averages and records for this station are not official NWS values.
T = Trace of Precipitation, MM = Missing Value Source: NWS Daily Summary

Daily Weather History Graph

Daily Weather History Graph

Search for Another Location

Airport or City:

Trip Planner

Search our weather history database for the weather conditions in past years. The results will help you decide how hot, cold, wet, or windy it might be!

Date:

Astronomy

Jan. 04, 2013 Rise Set
Actual Time 7:23 AM EST 5:39 PM EST
Civil Twilight 6:57 AM EST 6:05 PM EST
Nautical Twilight 6:27 AM EST 6:35 PM EST
Astronomical Twilight 5:58 AM EST 7:04 PM EST
Moon No Moon Rise 11:37 AM EST (1/4)
Length of Visible Light 11h 08m
Length of Day
10h 15m
Waning Gibbous, 55% of the Moon is Illuminated
Jan 4
Waning Gibbous
Jan 4
Last Quarter
Jan 11
New
Jan 18
First Quarter
Jan 26
Full

Hourly Weather History & Observations

Time (EST) Temp. Dew Point Humidity Pressure Visibility Wind Dir Wind Speed Gust Speed Precip Events Conditions
12:53 AM 51.1 °F 48.0 °F 89% 30.24 in 10.0 mi North 5.8 mph - N/A   Overcast
1:11 AM 51.8 °F 46.4 °F 82% 30.24 in 10.0 mi North 5.8 mph - N/A   Overcast
1:41 AM 51.8 °F 46.4 °F 82% 30.24 in 10.0 mi NNW 8.1 mph - N/A   Overcast
1:53 AM 51.1 °F 46.0 °F 83% 30.24 in 10.0 mi North 10.4 mph - N/A   Overcast
2:53 AM 50.0 °F 45.0 °F 83% 30.25 in 10.0 mi North 9.2 mph - N/A   Overcast
3:53 AM 50.0 °F 45.0 °F 83% 30.25 in 10.0 mi North 6.9 mph - N/A   Overcast
4:12 AM 50.0 °F 44.6 °F 82% 30.24 in 10.0 mi North 6.9 mph - N/A   Overcast
4:27 AM 50.0 °F 44.6 °F 82% 30.24 in 10.0 mi North 5.8 mph - N/A   Overcast
4:45 AM 50.0 °F 44.6 °F 82% 30.24 in 10.0 mi North 6.9 mph - N/A   Overcast
4:53 AM 50.0 °F 45.0 °F 83% 30.24 in 10.0 mi North 5.8 mph - N/A   Overcast
5:53 AM 48.9 °F 45.0 °F 86% 30.25 in 10.0 mi North 6.9 mph - N/A   Overcast
6:05 AM 48.2 °F 44.6 °F 87% 30.25 in 10.0 mi North 5.8 mph - N/A   Overcast
6:53 AM 48.9 °F 45.0 °F 86% 30.26 in 9.0 mi NNW 5.8 mph - N/A   Scattered Clouds
7:53 AM 48.9 °F 45.0 °F 86% 30.28 in 8.0 mi NNW 5.8 mph - N/A   Clear
8:24 AM 50.0 °F 44.6 °F 82% 30.29 in 8.0 mi North 6.9 mph - N/A   Partly Cloudy
8:53 AM 51.1 °F 46.0 °F 83% 30.30 in 8.0 mi NNW 8.1 mph - N/A   Partly Cloudy
9:12 AM 51.8 °F 46.4 °F 82% 30.31 in 9.0 mi North 9.2 mph - N/A   Mostly Cloudy
9:45 AM 51.8 °F 46.4 °F 82% 30.32 in 9.0 mi North 5.8 mph - N/A   Overcast
9:53 AM 52.0 °F 46.0 °F 80% 30.32 in 9.0 mi North 5.8 mph - N/A   Overcast
10:53 AM 55.0 °F 48.0 °F 77% 30.31 in 6.0 mi Variable 6.9 mph - N/A   Haze
11:53 AM 55.9 °F 48.9 °F 77% 30.29 in 6.0 mi North 4.6 mph - N/A   Haze
12:53 PM 57.0 °F 48.9 °F 74% 30.28 in 10.0 mi North 6.9 mph - N/A   Overcast
1:53 PM 55.9 °F 48.9 °F 77% 30.27 in 10.0 mi North 6.9 mph - N/A   Overcast
2:53 PM 57.0 °F 48.9 °F 74% 30.26 in 10.0 mi NNW 8.1 mph - N/A   Overcast
3:53 PM 57.0 °F 48.0 °F 72% 30.27 in 10.0 mi North 8.1 mph - N/A   Mostly Cloudy
4:53 PM 57.0 °F 48.0 °F 72% 30.28 in 10.0 mi NNW 6.9 mph - N/A   Mostly Cloudy
5:05 PM 55.4 °F 48.2 °F 77% 30.28 in 10.0 mi NNW 6.9 mph - N/A   Scattered Clouds
5:53 PM 54.0 °F 46.9 °F 77% 30.30 in 10.0 mi NW 5.8 mph - N/A   Clear
6:53 PM 53.1 °F 46.9 °F 80% 30.30 in 10.0 mi NNW 5.8 mph - N/A   Clear
7:53 PM 52.0 °F 46.9 °F 83% 30.32 in 10.0 mi North 5.8 mph - N/A   Clear
8:53 PM 51.1 °F 45.0 °F 80% 30.33 in 10.0 mi North 6.9 mph - N/A   Clear
9:53 PM 50.0 °F 45.0 °F 83% 30.33 in 10.0 mi North 5.8 mph - N/A   Clear
10:53 PM 50.0 °F 44.1 °F 80% 30.33 in 10.0 mi North 4.6 mph - N/A   Clear
11:53 PM 50.0 °F 42.1 °F 74% 30.33 in 10.0 mi North 5.8 mph - N/A   Clear